Date String (YYYY-MM-DD hh:mm:ss) UTC,Instrument flags,Ambient pressure (hPa),Sample flow (lpm),Bypass flow (lpm),Sample temperature (°C),Ambient temperature (°C),ASC tube jacket temperature (°C),LED temperature (°C),Box temperature (°C),Sample RH (%),Span deviation,Mass concentration (μg/m³),Mass concentration (μg/m³),Mass concentration (μg/m³)
DateTimeUTC,F1_M11,P_M11,Q1_M11,Q2_M11,T1_M11,T2_M11,T3_M11,T4_M11,T5_M11,U1_M11,ZSPAN_M11,X0_M11,X2_M11,X1_M11
2022-12-10 04:00:00,,0823.3,5.00,0.00,21.7,21.1,00.0,30.4,23.7,07.9,0000.0,0001.96,0001.09,0000.75
2022-12-10 04:01:00,,0823.2,4.98,0.00,21.7,20.9,00.0,30.5,23.6,07.9,0000.0,0002.08,0001.11,0000.76
2022-12-10 04:02:00,,0823.3,4.99,0.00,21.7,20.7,00.0,30.5,23.5,07.6,0000.0,0002.06,0001.13,0000.78
2022-12-10 04:03:00,,0823.3,4.99,0.00,21.7,20.6,00.0,30.5,23.5,07.6,0000.0,0002.13,0001.17,0000.80
2022-12-10 04:04:00,,0823.2,5.02,0.00,21.7,20.4,00.0,30.5,23.4,07.6,0000.0,0002.10,0001.17,0000.79
2022-12-10 04:05:00,,0823.3,4.99,0.00,21.7,20.3,00.0,30.5,23.4,07.4,0000.0,0002.12,0001.14,0000.78
2022-12-10 04:06:00,,0823.3,4.99,0.00,21.7,20.3,00.0,30.5,23.4,07.4,0000.0,0002.11,0001.14,0000.78
2022-12-10 04:07:00,,0823.4,5.00,0.00,21.6,20.2,00.0,30.5,23.3,07.5,0000.0,0002.07,0001.13,0000.78
2022-12-10 04:08:00,,0823.4,5.02,0.00,21.6,20.1,00.0,30.5,23.3,07.6,0000.0,0002.19,0001.15,0000.78
2022-12-10 04:09:00,,0823.3,4.99,0.00,21.6,20.0,00.0,30.5,23.3,07.6,0000.0,0002.11,0001.13,0000.78
2022-12-10 04:10:00,,0823.4,4.99,0.00,21.5,20.0,00.0,30.5,23.2,07.6,0000.0,0002.09,0001.13,0000.76
2022-12-10 04:11:00,,0823.4,5.03,0.00,21.5,19.9,00.0,30.4,23.2,07.6,0000.0,0001.92,0001.10,0000.75
2022-12-10 04:12:00,,0823.6,5.00,0.00,21.5,20.4,00.0,30.4,23.3,07.5,0000.0,0001.77,0001.06,0000.74
2022-12-10 04:13:00,,0823.6,4.99,0.00,21.6,21.5,00.0,30.4,23.6,07.6,0000.0,0001.85,0001.06,0000.73
2022-12-10 04:14:00,,0823.6,4.99,0.00,21.7,21.8,00.0,30.4,23.8,07.6,0000.0,0001.74,0001.00,0000.72
2022-12-10 04:15:00,,0823.5,5.00,0.00,21.8,21.4,00.0,30.5,23.7,07.5,0000.0,0001.91,0001.04,0000.73
2022-12-10 04:16:00,,0823.5,5.01,0.00,21.8,21.1,00.0,30.5,23.6,07.4,0000.0,0001.94,0001.05,0000.73
2022-12-10 04:17:00,,0823.6,5.01,0.00,21.7,20.8,00.0,30.5,23.5,07.4,0000.0,0001.91,0001.04,0000.73
2022-12-10 04:18:00,,0823.7,4.98,0.00,21.7,20.6,00.0,30.5,23.5,07.4,0000.0,0001.85,0001.02,0000.73
2022-12-10 04:19:00,,0823.7,4.99,0.00,21.7,20.5,00.0,30.5,23.5,07.3,0000.0,0001.81,0001.01,0000.72
2022-12-10 04:20:00,,0823.7,5.01,0.00,21.7,20.4,00.0,30.5,23.5,07.4,0000.0,0001.89,0000.99,0000.71
2022-12-10 04:21:00,,0823.7,5.02,0.00,21.7,20.4,00.0,30.5,23.5,07.4,0000.0,0001.99,0000.98,0000.71
2022-12-10 04:22:00,,0823.7,4.99,0.00,21.7,20.3,00.0,30.5,23.4,07.4,0000.0,0002.05,0000.97,0000.71
2022-12-10 04:23:00,,0823.7,4.99,0.00,21.6,20.2,00.0,30.5,23.4,07.5,0000.0,0002.47,0001.01,0000.71
2022-12-10 04:24:00,,0823.7,4.99,0.00,21.6,20.2,00.0,30.5,23.4,07.5,0000.0,0002.42,0000.99,0000.70
2022-12-10 04:25:00,,0823.7,5.02,0.00,21.6,20.1,00.0,30.5,23.4,07.5,0000.0,0002.47,0001.00,0000.69
2022-12-10 04:26:00,,0823.7,5.00,0.00,21.6,20.1,00.0,30.5,23.3,07.5,0000.0,0002.29,0000.94,0000.67
2022-12-10 04:27:00,,0823.7,4.98,0.00,21.6,20.1,00.0,30.5,23.3,07.6,0000.0,0002.38,0000.96,0000.68
2022-12-10 04:28:00,,0823.7,4.99,0.00,21.6,20.1,00.0,30.5,23.3,07.5,0000.0,0002.46,0000.99,0000.68
2022-12-10 04:29:00,,0823.7,5.02,0.00,21.6,20.6,00.0,30.4,23.4,07.6,0000.0,0002.49,0001.00,0000.68
2022-12-10 04:30:00,,0823.8,5.02,0.00,21.7,21.6,00.0,30.5,23.7,07.5,0000.0,0002.47,0001.00,0000.68
2022-12-10 04:31:00,,0823.8,5.00,0.00,21.8,22.1,00.0,30.5,23.9,07.4,0000.0,0002.48,0001.00,0000.68
2022-12-10 04:32:00,,0823.8,4.99,0.00,21.9,21.8,00.0,30.5,23.9,07.4,0000.0,0002.42,0000.99,0000.67
2022-12-10 04:33:00,,0823.8,4.99,0.00,21.9,21.5,00.0,30.6,23.8,07.4,0000.0,0002.50,0001.00,0000.67
2022-12-10 04:34:00,,0823.9,5.00,0.00,21.9,21.2,00.0,30.6,23.8,07.4,0000.0,0002.18,0000.95,0000.67
2022-12-10 04:35:00,,0823.9,5.02,0.00,21.9,21.1,00.0,30.6,23.8,07.4,0000.0,0002.26,0000.97,0000.68
2022-12-10 04:36:00,,0824.0,5.00,0.00,21.9,20.9,00.0,30.6,23.7,07.3,0000.0,0002.26,0000.95,0000.67
2022-12-10 04:37:00,,0823.8,4.98,0.00,21.9,20.8,00.0,30.6,23.7,07.3,0000.0,0002.25,0000.95,0000.68
2022-12-10 04:38:00,,0823.8,4.99,0.00,21.9,20.7,00.0,30.6,23.7,07.3,0000.0,0002.25,0000.96,0000.67
2022-12-10 04:39:00,,0823.9,5.01,0.00,21.9,20.6,00.0,30.7,23.7,07.3,0000.0,0002.27,0000.95,0000.67
2022-12-10 04:40:00,,0824.0,5.01,0.00,21.9,20.6,00.0,30.7,23.6,07.3,0000.0,0002.24,0000.94,0000.67
2022-12-10 04:41:00,,0823.9,4.99,0.00,21.8,20.5,00.0,30.6,23.6,07.4,0000.0,0002.22,0000.94,0000.67
2022-12-10 04:42:00,,0824.0,4.98,0.00,21.8,20.4,00.0,30.6,23.6,07.3,0000.0,0002.08,0000.93,0000.67
2022-12-10 04:43:00,,0824.0,5.02,0.00,21.8,20.4,00.0,30.6,23.5,07.3,0000.0,0001.98,0000.92,0000.68
2022-12-10 04:44:00,,0823.9,5.00,0.00,21.8,20.4,00.0,30.6,23.6,07.4,0000.0,0001.93,0000.95,0000.68
2022-12-10 04:45:00,,0824.0,4.98,0.00,21.8,20.3,00.0,30.6,23.5,07.4,0000.0,0001.90,0000.97,0000.69
2022-12-10 04:46:00,,0824.0,5.00,0.00,21.8,20.3,00.0,30.6,23.5,07.4,0000.0,0001.85,0000.96,0000.68
2022-12-10 04:47:00,,0824.0,5.03,0.00,21.7,20.3,00.0,30.6,23.4,07.4,0000.0,0001.74,0000.95,0000.68
2022-12-10 04:48:00,,0824.0,4.99,0.00,21.7,20.3,00.0,30.6,23.4,07.4,0000.0,0001.72,0000.94,0000.68
2022-12-10 04:49:00,,0824.0,4.99,0.00,21.7,20.2,00.0,30.6,23.4,07.4,0000.0,0001.62,0000.93,0000.68
2022-12-10 04:50:00,,0824.1,5.02,0.00,21.7,20.2,00.0,30.6,23.4,07.4,0000.0,0001.54,0000.93,0000.68
2022-12-10 04:51:00,,0824.0,5.00,0.00,21.7,20.2,00.0,30.6,23.4,07.4,0000.0,0001.58,0000.94,0000.68
2022-12-10 04:52:00,,0824.0,4.99,0.00,21.7,20.2,00.0,30.6,23.4,07.4,0000.0,0001.56,0000.94,0000.68
2022-12-10 04:53:00,,0824.0,5.00,0.00,21.7,20.1,00.0,30.6,23.4,07.5,0000.0,0001.55,0000.94,0000.68
2022-12-10 04:54:00,,0824.1,5.02,0.00,21.7,20.5,00.0,30.5,23.5,07.4,0000.0,0001.59,0000.96,0000.67
2022-12-10 04:55:00,,0824.1,5.01,0.00,21.8,21.5,00.0,30.5,23.7,07.4,0000.0,0001.54,0000.94,0000.67
2022-12-10 04:56:00,,0824.1,4.98,0.00,21.9,22.1,00.0,30.6,23.9,07.3,0000.0,0001.49,0000.92,0000.66
2022-12-10 04:57:00,,0824.1,5.00,0.00,21.9,21.8,00.0,30.6,23.9,07.3,0000.0,0001.46,0000.92,0000.67
2022-12-10 04:58:00,,0824.2,4.99,0.00,21.9,21.5,00.0,30.6,23.8,07.3,0000.0,0001.54,0000.94,0000.67
2022-12-10 04:59:00,,0824.3,5.01,0.00,21.9,21.3,00.0,30.7,23.8,07.4,0000.0,0001.55,0000.95,0000.67
